This is the latest recevied weather packets stored in our database for station/object YB2VNE-13. If no packets are shown the sender has not sent any weather packets the latest 10 day(s).
| Time | Temp. | Humidity | Pressure | Rain* | Wind** | Luminosity | Snow |
|---|---|---|---|---|---|---|---|
| 1788514585 | 30.56° C | 49% | 998 hPa | - | - | 0 W/m² | - |
| 1788514261 | 30.56° C | 49% | 998 hPa | - | - | 0 W/m² | - |
| 1788513937 | 30.56° C | 48% | 998 hPa | - | - | 0 W/m² | - |
| 1788513613 | 30.56° C | 48% | 998 hPa | - | - | 0 W/m² | - |
| 1788513289 | 30.56° C | 49% | 998 hPa | - | - | 0 W/m² | - |
| 1788512965 | 30.56° C | 49% | 998 hPa | - | - | 0 W/m² | - |
| 1788512641 | 30.56° C | 47% | 998 hPa | - | - | 0 W/m² | - |
| 1788512317 | 31.11° C | 48% | 998 hPa | - | - | 0 W/m² | - |
| 1788511993 | 31.11° C | 47% | 998 hPa | - | - | 0 W/m² | - |
| 1788511669 | 34.44° C | 39% | 998 hPa | - | - | 0 W/m² | - |
| 1788511345 | 36.11° C | 37% | 998 hPa | - | - | 0 W/m² | - |
| 1788511022 | 35° C | 39% | 997 hPa | - | - | 0 W/m² | - |
| 1788510698 | 32.22° C | 45% | 997 hPa | - | - | 0 W/m² | - |
| 1788510374 | 30.56° C | 48% | 998 hPa | - | - | 0 W/m² | - |
| 1788510075 | 31.11° C | 48% | 997 hPa | - | - | 0 W/m² | - |
| 1788509726 | 30.56° C | 48% | 997 hPa | - | - | 0 W/m² | - |
| 1788509402 | 31.11° C | 48% | 997 hPa | - | - | 0 W/m² | - |
| 1788509079 | 31.11° C | 48% | 997 hPa | - | - | 0 W/m² | - |
| 1788508754 | 30.56° C | 49% | 997 hPa | - | - | 0 W/m² | - |
| 1788508430 | 31.11° C | 48% | 997 hPa | - | - | 0 W/m² | - |
| 1788508106 | 31.11° C | 49% | 997 hPa | - | - | 0 W/m² | - |
| 1788507782 | 30.56° C | 49% | 997 hPa | - | - | 0 W/m² | - |
| 1788507458 | 30.56° C | 49% | 997 hPa | - | - | 0 W/m² | - |
| 1788507134 | 30.56° C | 49% | 997 hPa | - | - | 0 W/m² | - |
| 1788506810 | 30.56° C | 49% | 997 hPa | - | - | 0 W/m² | - |
* Rain since midnight (hover to see other rain measurements)
** Current wind speed in m/s (hover to see current wind gust speed)